When you browse on this site, cookies collect data to enhance your experience and personalize the content and advertising you see.
Visit our Privacy Policy to learn more. By continuing to use the site, you agree to this use of cookies and data.
  • In Portugal
  • List of Countries
  • For 7 days
  • Water Temperature
  • Satellite Maps
  • Weather Map
  • Weather Widgets
  • user-avatar
    Login

    Hourly Weather Bugojno

    Today, 17 November, Saturday

    Time Temperature Precipitation Wind Pressure Humidity
    00:00 +3°C° 0 mm 2 mps 716 mmHg 89%
    01:00 +2°C° 0 mm 2 mps 716 mmHg 90%
    02:00 +2°C° 0 mm 2 mps 716 mmHg 89%
    03:00 +2°C° 0 mm 2 mps 715 mmHg 89%
    04:00 +2°C° 0 mm 2 mps 715 mmHg 89%
    05:00 +1°C° 0 mm 3 mps 715 mmHg 89%
    06:00 +1°C° 0 mm 3 mps 715 mmHg 89%
    07:00 +1°C° 0 mm 2 mps 715 mmHg 88%
    08:00 +1°C° 0 mm 3 mps 715 mmHg 82%
    09:00 +2°C° 0 mm 3 mps 716 mmHg 75%
    10:00 +3°C° 0 mm 3 mps 716 mmHg 69%
    11:00 +4°C° 0 mm 4 mps 716 mmHg 66%
    12:00 +4°C° 0 mm 4 mps 715 mmHg 64%
    13:00 +4°C° 0 mm 4 mps 715 mmHg 61%
    14:00 +4°C° 0.1 mm 4 mps 715 mmHg 64%
    15:00 +3°C° 0.1 mm 4 mps 715 mmHg 66%
    16:00 +3°C° 0.1 mm 4 mps 715 mmHg 68%
    17:00 +2°C° 0 mm 3 mps 715 mmHg 72%
    18:00 +1°C° 0 mm 3 mps 715 mmHg 75%
    19:00 +1°C° 0 mm 2 mps 715 mmHg 78%
    20:00 +1°C° 0 mm 2 mps 715 mmHg 81%
    21:00 -1°C° 0 mm 2 mps 715 mmHg 83%
    22:00 -1°C° 0 mm 2 mps 715 mmHg 85%
    23:00 -1°C° 0 mm 2 mps 715 mmHg 86%

    Tomorrow, 18 November, Sunday

    Time Temperature Precipitation Wind Pressure Humidity
    00:00 -2°C° 0 mm 2 mps 715 mmHg 86%
    01:00 -2°C° 0 mm 2 mps 714 mmHg 87%
    02:00 -2°C° 0 mm 2 mps 714 mmHg 86%
    03:00 -2°C° 0 mm 2 mps 714 mmHg 85%
    04:00 -2°C° 0 mm 2 mps 714 mmHg 84%
    05:00 -2°C° 0 mm 2 mps 713 mmHg 85%
    06:00 -2°C° 0 mm 2 mps 713 mmHg 85%
    07:00 -2°C° 0 mm 2 mps 713 mmHg 85%
    08:00 -1°C° 0 mm 2 mps 713 mmHg 80%
    09:00 +1°C° 0 mm 2 mps 713 mmHg 74%
    10:00 +2°C° 0 mm 2 mps 713 mmHg 69%
    11:00 +3°C° 0 mm 2 mps 712 mmHg 67%
    12:00 +3°C° 0 mm 2 mps 712 mmHg 66%
    13:00 +4°C° 0 mm 2 mps 711 mmHg 64%
    14:00 +3°C° 0 mm 2 mps 711 mmHg 68%
    15:00 +2°C° 0 mm 2 mps 710 mmHg 72%
    16:00 +2°C° 0 mm 2 mps 710 mmHg 76%
    17:00 +1°C° 0 mm 2 mps 709 mmHg 79%
    18:00 +1°C° 0 mm 2 mps 709 mmHg 82%
    19:00 -1°C° 0 mm 2 mps 709 mmHg 85%
    20:00 -1°C° 0 mm 2 mps 708 mmHg 86%
    21:00 +1°C° 0 mm 1 mps 708 mmHg 86%
    22:00 +1°C° 0 mm 1 mps 708 mmHg 87%
    23:00 +1°C° 0 mm 1 mps 708 mmHg 88%

    Day after tomorrow, 19 November, Monday

    Time Temperature Precipitation Wind Pressure Humidity
    00:00 +1°C° 0 mm 1 mps 707 mmHg 89%
    01:00 +1°C° 0 mm 1 mps 707 mmHg 89%
    02:00 +1°C° 0 mm 1 mps 707 mmHg 90%
    03:00 0°C° 0 mm 1 mps 707 mmHg 90%
    04:00 0°C° 0 mm 1 mps 707 mmHg 91%
    05:00 0°C° 0 mm 1 mps 707 mmHg 90%
    06:00 0°C° 0 mm 1 mps 707 mmHg 90%
    07:00 0°C° 0 mm 1 mps 707 mmHg 90%
    08:00 +2°C° 0 mm 1 mps 707 mmHg 80%
    09:00 +4°C° 0 mm 1 mps 708 mmHg 71%
    10:00 +6°C° 0 mm 1 mps 708 mmHg 61%
    11:00 +7°C° 0 mm 1 mps 708 mmHg 60%
    12:00 +8°C° 0 mm 1 mps 708 mmHg 58%
    13:00 +9°C° 0 mm 1 mps 708 mmHg 56%
    14:00 +8°C° 0.1 mm 1 mps 708 mmHg 62%
    15:00 +7°C° 0.1 mm 1 mps 708 mmHg 68%
    16:00 +6°C° 0.1 mm 1 mps 707 mmHg 74%
    17:00 +5°C° 0.1 mm 1 mps 707 mmHg 78%
    18:00 +5°C° 0.1 mm 1 mps 707 mmHg 81%
    19:00 +4°C° 0.1 mm 1 mps 708 mmHg 85%
    20:00 +4°C° 0.3 mm 1 mps 707 mmHg 86%
    21:00 +4°C° 0.3 mm 1 mps 707 mmHg 87%
    22:00 +4°C° 0.3 mm 1 mps 707 mmHg 88%
    23:00 +4°C° 0.8 mm 1 mps 706 mmHg 88%

    20 November, Tuesday

    Time Temperature Precipitation Wind Pressure Humidity
    00:00 +5°C° 0.8 mm 1 mps 706 mmHg 89%
    01:00 +4°C° 0.8 mm 2 mps 705 mmHg 90%
    02:00 +4°C° 1.2 mm 2 mps 704 mmHg 91%
    03:00 +4°C° 1.2 mm 2 mps 704 mmHg 92%
    04:00 +3°C° 1.2 mm 3 mps 703 mmHg 93%
    05:00 +4°C° 1.9 mm 3 mps 703 mmHg 93%
    06:00 +5°C° 1.9 mm 3 mps 702 mmHg 94%
    07:00 +5°C° 1.9 mm 3 mps 702 mmHg 95%
    08:00 +7°C° 3.6 mm 3 mps 702 mmHg 93%
    09:00 +7°C° 3.6 mm 4 mps 702 mmHg 92%
    10:00 +8°C° 3.6 mm 4 mps 702 mmHg 91%
    11:00 +10°C° 3.8 mm 4 mps 701 mmHg 91%
    12:00 +10°C° 3.8 mm 4 mps 701 mmHg 90%
    13:00 +11°C° 3.8 mm 4 mps 701 mmHg 90%
    14:00 +10°C° 4 mm 4 mps 701 mmHg 91%
    15:00 +10°C° 4 mm 4 mps 701 mmHg 92%
    16:00 +10°C° 4 mm 3 mps 700 mmHg 93%
    17:00 +10°C° 2.8 mm 3 mps 701 mmHg 93%
    18:00 +10°C° 2.8 mm 3 mps 701 mmHg 93%
    19:00 +10°C° 2.8 mm 3 mps 701 mmHg 94%
    20:00 +9°C° 0.4 mm 3 mps 702 mmHg 94%
    21:00 +9°C° 0.4 mm 3 mps 702 mmHg 94%
    22:00 +9°C° 0.4 mm 3 mps 702 mmHg 95%
    23:00 +9°C° 0.1 mm 2 mps 702 mmHg 95%

    21 November, Wednesday

    Time Temperature Precipitation Wind Pressure Humidity
    00:00 +9°C° 0.1 mm 2 mps 703 mmHg 95%
    01:00 +8°C° 0.1 mm 2 mps 703 mmHg 96%
    02:00 +8°C° 0.1 mm 2 mps 703 mmHg 96%
    03:00 +8°C° 0.1 mm 2 mps 704 mmHg 96%
    04:00 +9°C° 0.1 mm 1 mps 704 mmHg 96%
    05:00 +9°C° 0 mm 1 mps 705 mmHg 95%
    06:00 +9°C° 0 mm 1 mps 705 mmHg 95%
    07:00 +9°C° 0 mm 1 mps 706 mmHg 95%
    08:00 +10°C° 0 mm 1 mps 707 mmHg 90%
    09:00 +11°C° 0 mm 1 mps 707 mmHg 86%
    10:00 +13°C° 0 mm 1 mps 708 mmHg 81%
    11:00 +13°C° 0 mm 1 mps 708 mmHg 77%
    12:00 +14°C° 0 mm 2 mps 708 mmHg 72%
    13:00 +15°C° 0 mm 2 mps 708 mmHg 68%
    14:00 +14°C° 0 mm 2 mps 709 mmHg 73%
    15:00 +12°C° 0 mm 2 mps 709 mmHg 79%
    16:00 +10°C° 0 mm 2 mps 709 mmHg 85%
    17:00 +10°C° 0 mm 2 mps 709 mmHg 88%
    18:00 +9°C° 0 mm 2 mps 710 mmHg 90%
    19:00 +9°C° 0 mm 2 mps 710 mmHg 92%
    20:00 +9°C° 0 mm 2 mps 710 mmHg 93%
    21:00 +9°C° 0 mm 3 mps 710 mmHg 93%
    22:00 +9°C° 0 mm 3 mps 710 mmHg 93%
    23:00 +9°C° 0.3 mm 3 mps 710 mmHg 93%

    22 November, Thursday

    Time Temperature Precipitation Wind Pressure Humidity
    00:00 +9°C° 0.3 mm 3 mps 710 mmHg 93%
    01:00 +9°C° 0.3 mm 3 mps 710 mmHg 94%
    02:00 +9°C° 0.4 mm 2 mps 711 mmHg 94%
    03:00 +9°C° 0.4 mm 2 mps 711 mmHg 94%
    04:00 +9°C° 0.4 mm 2 mps 711 mmHg 94%
    05:00 +9°C° 0.4 mm 2 mps 711 mmHg 94%
    06:00 +9°C° 0.4 mm 2 mps 711 mmHg 94%
    07:00 +9°C° 0.4 mm 2 mps 711 mmHg 94%
    08:00 +10°C° 0.6 mm 2 mps 711 mmHg 93%
    09:00 +10°C° 0.6 mm 2 mps 712 mmHg 91%
    10:00 +12°C° 0.6 mm 2 mps 712 mmHg 90%
    11:00 +12°C° 0.7 mm 2 mps 712 mmHg 88%
    12:00 +13°C° 0.7 mm 2 mps 712 mmHg 87%
    13:00 +13°C° 0.7 mm 2 mps 712 mmHg 86%
    14:00 +12°C° 0.4 mm 2 mps 712 mmHg 88%
    15:00 +12°C° 0.4 mm 1 mps 712 mmHg 90%
    16:00 +11°C° 0.4 mm 1 mps 712 mmHg 92%
    17:00 +11°C° 0.3 mm 1 mps 713 mmHg 93%
    18:00 +11°C° 0.3 mm 1 mps 713 mmHg 94%
    19:00 +10°C° 0.3 mm 1 mps 713 mmHg 94%
    20:00 +10°C° 0 mm 1 mps 713 mmHg 94%
    21:00 +9°C° 0 mm 1 mps 714 mmHg 94%
    22:00 +9°C° 0 mm 1 mps 714 mmHg 94%
    23:00 +9°C° 0 mm 1 mps 714 mmHg 94%
    Show more